WASEDA-SAT3 (41933 NORAD) Tracking and Keplerian Element Data

This shows tracking and keplerian element data for the satellite.

Feedback or suggestion? Click here.




ElementValue
Catalog41933
NameWASEDA-SAT3
Epoch Orbit8525
Epoch Day195.89787458
Epoch Year2018
RAAN189.0508
Inclination51.6313
Eccentricity0.0004012
Argument of Perigee9.1873
Mean Anonmoly350.9204
Mean Motion15.86478399
Decay Rate0.00065068
L11 41933U 98067KV 18195.89787458 .00065068 00000-0 25316-3 0 9995
L22 41933 51.6313 189.0508 0004012 9.1873 350.9204 15.86478399 85250

Live tracking and technical data element details for WASEDA-SAT3 (NORAD 41933). WASEDA-SAT3 can be tracked NOW for your location showing map with azimuth and elevation plus other details from your city location.

Track the satellite on the map from your city or location and see movement details for azimuth, elevation, latitude, longitude, range, height, and movement on the map or in text.







IsCatalogInMostPopularTable: catalog: 41933, numindb: 72
Update: records affected: 1



GetName: 41933 WASEDA-SAT3

Hit Count: updated at: Sun, 15 Jul 2018 23:16:28 GMT